THA125 VTSM-VTBS

Flight info

Callsign THA125
Flight time N/A
Altitude 34000
Route OLBAG1A OLBAG Y17 DONSI M769 LEBIM LEBIM1C
Aircraft A320/M-SDE3FGHIRWY/LB1

Departure

Time 2026-04-24 16:38
Airport Samui International Airport (VTSM)

Arrival

Time N/A
Airport Suvarnabhumi Airport (VTBS)
Time Latitude Longitude Altitude Speed Heading
2026-04-24 15:55 9.55202 100.06338 15 ft 0 kts 83°
2026-04-24 16:29 9.55199 100.06314 15 ft 2 kts 83°
2026-04-24 16:30 9.55193 100.06300 19 ft 1 kts 349°
2026-04-24 16:30 9.55188 100.06301 20 ft 1 kts 360°
2026-04-24 16:30 9.55187 100.06301 19 ft 2 kts 354°
2026-04-24 16:31 9.55200 100.06299 16 ft 2 kts 354°
2026-04-24 16:31 9.55214 100.06298 18 ft 2 kts 354°
2026-04-24 16:31 9.55225 100.06297 15 ft 1 kts 354°
2026-04-24 16:31 9.55232 100.06296 14 ft 1 kts 355°
2026-04-24 16:32 9.55237 100.06296 14 ft 1 kts 355°
2026-04-24 16:32 9.55243 100.06295 16 ft 1 kts 355°
2026-04-24 16:32 9.55247 100.06295 15 ft 0 kts 355°
2026-04-24 16:34 9.55260 100.06294 14 ft 4 kts 355°
2026-04-24 16:34 9.55294 100.06276 13 ft 7 kts 301°
2026-04-24 16:34 9.55297 100.06224 13 ft 8 kts 281°
2026-04-24 16:34 9.55352 100.06199 13 ft 11 kts 354°
2026-04-24 16:35 9.55433 100.06191 13 ft 13 kts 355°
2026-04-24 16:35 9.55534 100.06181 10 ft 16 kts 354°
2026-04-24 16:35 9.55632 100.06190 7 ft 16 kts 13°
2026-04-24 16:35 9.55703 100.06185 6 ft 8 kts 327°
2026-04-24 16:36 9.55700 100.06165 6 ft 3 kts 219°
2026-04-24 16:36 9.55677 100.06166 6 ft 4 kts 172°
2026-04-24 16:36 9.55671 100.06167 6 ft 0 kts 173°
2026-04-24 16:37 9.55669 100.06167 6 ft 5 kts 173°
2026-04-24 16:37 9.55336 100.06201 13 ft 91 kts 174°
2026-04-24 16:37 9.54464 100.06290 27 ft 158 kts 173°
2026-04-24 16:38 9.53329 100.06414 722 ft 164 kts 167°
2026-04-24 16:38 9.52224 100.06803 1476 ft 173 kts 156°
2026-04-24 16:38 9.51047 100.07285 1737 ft 193 kts 156°
2026-04-24 16:38 9.49739 100.07829 2095 ft 209 kts 156°
2026-04-24 16:39 9.48379 100.08392 2764 ft 214 kts 155°
2026-04-24 16:39 9.47042 100.09087 3361 ft 219 kts 135°
2026-04-24 16:39 9.46283 100.10399 3922 ft 221 kts 97°
2026-04-24 16:39 9.46218 100.11972 4527 ft 226 kts 89°
2026-04-24 16:40 9.46225 100.13585 5148 ft 231 kts 88°
2026-04-24 16:40 9.46236 100.15221 5812 ft 234 kts 86°
2026-04-24 16:40 9.46590 100.16814 6470 ft 234 kts 59°
2026-04-24 16:40 9.47692 100.18004 7101 ft 235 kts 30°
2026-04-24 16:41 9.49229 100.18500 7711 ft 239 kts
2026-04-24 16:41 9.50884 100.18760 8363 ft 242 kts 10°
2026-04-24 16:41 9.52559 100.19022 9016 ft 245 kts 11°
2026-04-24 16:41 9.54253 100.19291 9649 ft 249 kts 10°
2026-04-24 16:42 9.56011 100.19398 10110 ft 262 kts
2026-04-24 16:42 9.57916 100.19369 10296 ft 285 kts
2026-04-24 16:42 9.59979 100.19330 10451 ft 308 kts
2026-04-24 16:42 9.62202 100.19285 10573 ft 331 kts
2026-04-24 16:43 9.64577 100.19237 10728 ft 349 kts
2026-04-24 16:43 9.67036 100.19187 11169 ft 357 kts
2026-04-24 16:43 9.69533 100.19138 11705 ft 360 kts
2026-04-24 16:43 9.72049 100.19130 12242 ft 363 kts
2026-04-24 16:44 9.74518 100.19639 12771 ft 363 kts 21°
2026-04-24 16:44 9.76807 100.20707 13301 ft 364 kts 29°
2026-04-24 16:44 9.79052 100.21846 13822 ft 367 kts 28°
2026-04-24 16:44 9.81344 100.23008 14282 ft 370 kts 28°
2026-04-24 16:45 9.83657 100.24181 14745 ft 373 kts 28°
2026-04-24 16:45 9.85989 100.25362 15190 ft 376 kts 28°
2026-04-24 16:45 9.88340 100.26552 15655 ft 380 kts 27°
2026-04-24 16:45 9.90711 100.27752 16113 ft 383 kts 28°
2026-04-24 16:46 9.93105 100.28963 16548 ft 386 kts 27°
2026-04-24 16:46 9.95521 100.30182 16990 ft 389 kts 29°
2026-04-24 16:46 9.97954 100.31408 17418 ft 393 kts 29°
2026-04-24 16:46 10.00388 100.32706 17854 ft 396 kts 30°
2026-04-24 16:47 10.02797 100.34084 18251 ft 399 kts 31°
2026-04-24 16:47 10.05198 100.35515 18661 ft 401 kts 31°
2026-04-24 16:47 10.07602 100.36969 19075 ft 403 kts 31°
2026-04-24 16:47 10.10028 100.38409 19471 ft 405 kts 28°
2026-04-24 16:48 10.12643 100.39505 19856 ft 409 kts 17°
2026-04-24 16:48 10.15439 100.40070 20242 ft 412 kts
2026-04-24 16:48 10.18314 100.40179 20623 ft 415 kts
2026-04-24 16:48 10.21211 100.40238 21030 ft 417 kts
2026-04-24 16:49 10.24120 100.40301 21414 ft 419 kts
2026-04-24 16:49 10.27046 100.40372 21780 ft 422 kts
2026-04-24 16:49 10.29991 100.40446 22149 ft 424 kts
2026-04-24 16:49 10.32949 100.40518 22524 ft 426 kts
2026-04-24 16:50 10.34912 100.40565 22754 ft 428 kts
2026-04-24 16:50 10.38914 100.40660 23210 ft 431 kts
2026-04-24 16:50 10.41919 100.40731 23553 ft 433 kts
2026-04-24 16:50 10.44934 100.40805 23860 ft 434 kts
2026-04-24 16:51 10.47920 100.40878 24165 ft 436 kts
2026-04-24 16:51 10.50953 100.40951 24473 ft 437 kts
2026-04-24 16:51 10.54039 100.41023 24777 ft 438 kts
2026-04-24 16:51 10.57056 100.41094 25076 ft 440 kts
2026-04-24 16:52 10.60120 100.41167 25373 ft 441 kts
2026-04-24 16:52 10.63193 100.41243 25663 ft 443 kts
2026-04-24 16:52 10.66276 100.41319 25954 ft 444 kts
2026-04-24 16:52 10.69372 100.41396 26245 ft 446 kts
2026-04-24 16:53 10.72476 100.41472 26520 ft 447 kts
2026-04-24 16:53 10.75599 100.41547 26799 ft 449 kts
2026-04-24 16:53 10.78726 100.41621 27063 ft 451 kts
2026-04-24 16:53 10.81867 100.41699 27311 ft 453 kts
2026-04-24 16:54 10.85020 100.41779 27591 ft 455 kts
2026-04-24 16:54 10.88185 100.41858 27866 ft 456 kts
2026-04-24 16:54 10.91367 100.41935 28136 ft 458 kts
2026-04-24 16:54 10.94558 100.42012 28407 ft 460 kts
2026-04-24 16:55 10.97769 100.42090 28687 ft 462 kts
2026-04-24 16:55 11.00974 100.42167 29054 ft 461 kts
2026-04-24 16:55 11.04184 100.42242 29473 ft 460 kts
2026-04-24 16:55 11.07379 100.42314 29885 ft 459 kts
2026-04-24 16:56 11.10567 100.42386 30254 ft 458 kts
2026-04-24 16:56 11.13746 100.42459 30599 ft 457 kts
2026-04-24 16:56 11.16926 100.42537 30921 ft 457 kts
2026-04-24 16:56 11.20104 100.42616 31258 ft 456 kts
2026-04-24 16:57 11.23275 100.42698 31615 ft 456 kts
2026-04-24 16:57 11.26437 100.42778 31964 ft 455 kts
2026-04-24 16:57 11.29605 100.42860 32327 ft 454 kts
2026-04-24 16:57 11.32756 100.42940 32691 ft 453 kts
2026-04-24 16:58 11.35905 100.43016 33057 ft 452 kts
2026-04-24 16:58 11.39010 100.43087 33425 ft 452 kts
2026-04-24 16:58 11.42190 100.43159 33772 ft 451 kts
2026-04-24 16:58 11.45292 100.43235 33878 ft 453 kts
2026-04-24 16:59 11.51662 100.43395 33892 ft 461 kts
2026-04-24 17:00 11.61303 100.43639 33892 ft 462 kts
2026-04-24 17:00 11.70919 100.43874 33895 ft 456 kts
2026-04-24 17:01 11.80344 100.44101 33893 ft 449 kts
2026-04-24 17:02 11.89682 100.44332 33891 ft 449 kts
2026-04-24 17:02 11.95924 100.44495 33891 ft 449 kts
2026-04-24 17:03 12.05279 100.44732 33689 ft 443 kts
2026-04-24 17:03 12.08331 100.44806 33431 ft 436 kts
2026-04-24 17:04 12.11349 100.44879 33178 ft 432 kts
2026-04-24 17:04 12.17306 100.45030 32554 ft 424 kts
2026-04-24 17:04 12.20253 100.45108 32080 ft 422 kts
2026-04-24 17:05 12.23179 100.45185 31626 ft 420 kts
2026-04-24 17:05 12.26090 100.45261 31157 ft 417 kts
2026-04-24 17:05 12.31873 100.45405 30265 ft 413 kts
2026-04-24 17:06 12.34737 100.45476 29803 ft 411 kts
2026-04-24 17:06 12.40360 100.45614 28945 ft 403 kts
2026-04-24 17:06 12.43157 100.45684 28537 ft 400 kts
2026-04-24 17:07 12.45030 100.45732 28267 ft 397 kts
2026-04-24 17:07 12.48669 100.45823 27735 ft 393 kts
2026-04-24 17:07 12.54103 100.45963 26937 ft 388 kts
2026-04-24 17:08 12.59471 100.46100 26135 ft 384 kts
2026-04-24 17:08 12.62133 100.46163 25733 ft 382 kts
2026-04-24 17:08 12.64785 100.46226 25313 ft 381 kts
2026-04-24 17:09 12.70062 100.46362 24474 ft 378 kts
2026-04-24 17:09 12.75321 100.46495 23612 ft 377 kts
2026-04-24 17:10 12.77944 100.46559 23130 ft 377 kts
2026-04-24 17:10 12.85706 100.46758 21817 ft 370 kts
2026-04-24 17:11 12.93373 100.46960 20521 ft 365 kts
2026-04-24 17:12 13.05966 100.47280 18366 ft 359 kts